[[{"header":{"parameterUnit":"m.s-1","parameterCategory":1,"la1":30.2991,"la2":30.254,"lo1":-89.0895,"lo2":-89.0444,"dx":0.0017,"dy":0.0017,"nx":28,"ny":28,"refTime":"2022-12-30T15:00:00:Z","depth":0,"parameterNumber":2,"parameterNumberName":"U-component_of_WINDS"},"data":[0,0,0,0,0,0,0,0,0,0,0,0,0,0,0,0,0,0,0,0,0,0,0,0,0,0,0,0,0,0,0,0,0,0,0,0,0,0,0,0,0,0,0,0,0,0,0,0,0,0,0,0,0,0,0,0,0,0,-1.1121,-1.1123,0,-1.1362,-1.1365,-1.1368,-1.1383,-1.138,-1.1377,-1.1375,-1.1628,-1.1637,-1.1646,0,0,0,0,0,0,0,0,0,0,0,0,0,-1.0673,-1.0681,-1.112,-1.1123,-1.1126,-1.1362,-1.1365,-1.1369,-1.1383,-1.138,-1.1377,-1.1374,-1.1625,-1.1636,-1.1647,0,0,0,0,0,0,0,0,0,0,0,0,0,-1.0887,-1.0684,-1.112,-1.1162,-1.1168,-1.1361,-1.1365,-1.1369,-1.1384,-1.138,-1.1376,-1.1372,-1.1621,-1.1635,-1.1648,-1.1817,0,0,-1.1691,-1.1697,0,0,0,0,0,0,0,0,-1.0875,-1.0903,-1.1153,-1.116,-1.1167,-1.1338,-1.13,-1.152,-1.1385,-1.1302,-1.1375,-1.137,-1.1535,-1.1556,-1.1611,-1.1829,-1.184,-1.1692,-1.1701,-1.1707,-1.1711,0,0,0,0,0,0,0,-1.086,-1.0893,-1.1216,-1.1156,-1.1165,-1.117,-1.1195,-1.1342,-1.1439,-1.1309,-1.1311,-1.1339,-1.1538,-1.1597,-1.1617,-1.1844,-1.1692,-1.1704,-1.1713,-1.1718,-1.221,-1.2214,0,0,0,0,0,0,-1.0836,-1.088,-1.1209,-1.1224,-1.1007,-1.1181,-1.121,-1.1287,-1.1438,-1.1456,-1.1342,-1.1339,-1.1575,-1.16,-1.1625,-1.1832,-1.1707,-1.172,-1.1728,-1.2205,-1.2211,-1.2216,0,0,0,0,0,0,-1.0827,-1.0866,-1.1199,-1.1052,-1.1095,-1.1193,-1.128,-1.1294,-1.1353,-1.1462,-1.148,-1.1385,-1.1573,-1.1606,-1.1768,-1.1841,-1.1726,-1.1739,-1.22,-1.2207,-1.2213,-1.2246,0,0,0,0,0,0,-1.0814,-1.0862,-1.0927,-1.1054,-1.1103,-1.1337,-1.1285,-1.1302,-1.1377,-1.1374,-1.1507,-1.1525,-1.1572,-1.1747,-1.1782,-1.1858,-1.175,-1.2194,-1.2203,-1.2211,-1.2239,-1.2253,-1.2266,0,0,0,0,0,-1.0798,-1.0929,-1.093,-1.097,-1.1186,-1.1342,-1.137,-1.142,-1.1382,-1.1449,-1.1518,-1.1521,-1.1826,-1.1764,-1.1803,-1.1884,-1.2189,-1.22,-1.2211,-1.2233,-1.2251,-1.2265,0,0,0,0,0,0,-1.0811,-1.0946,-1.095,-1.1125,-1.1221,-1.1344,-1.1429,-1.1438,-1.1548,-1.1542,-1.1601,-1.1631,-1.1791,-1.1854,-1.1782,-1.2054,-1.2004,-1.2023,-1.2008,-1.2025,-1.2038,-1.2021,-1.1761,0,0,0,0,0,-1.0833,-1.0947,-1.106,-1.1204,-1.1251,-1.1331,-1.1401,-1.1431,-1.1534,-1.1576,-1.1657,-1.1758,-1.1877,-1.1954,-1.207,-1.2247,-1.2276,-1.2322,-1.2335,-1.2345,-1.2362,-1.2458,-1.248,-1.2251,-1.2251,-1.225,0,0,-1.0883,-1.0971,-1.104,-1.1208,-1.1286,-1.1403,-1.1366,-1.1492,-1.158,-1.1596,-1.1753,-1.1816,-1.1933,-1.2103,-1.2182,-1.216,-1.2431,-1.2359,-1.2366,-1.2377,-1.2471,-1.2493,-1.2512,-1.2258,-1.2256,-1.2255,0,0,-1.1033,-1.1111,-1.1238,-1.1316,-1.1433,-1.1485,-1.1515,-1.1636,-1.1677,-1.1836,-1.1849,-1.1954,-1.2157,-1.2239,-1.2307,-1.2482,-1.2488,-1.2518,-1.2589,-1.2682,-1.27,-1.2716,-1.2779,-1.28,-1.2533,-1.2533,-1.2534,0,-1.108,-1.1256,-1.1303,-1.1428,-1.1501,-1.1517,-1.1646,-1.172,-1.187,-1.192,-1.1892,-1.2145,-1.2225,-1.2414,-1.2456,-1.251,-1.2547,-1.2505,-1.2693,-1.271,-1.2726,-1.2786,-1.2809,-1.2536,-1.2536,-1.2536,-1.2535,0,-1.1307,-1.1429,-1.1517,-1.1658,-1.1741,-1.1868,-1.1934,-1.2012,-1.2033,-1.2088,-1.2248,-1.2343,-1.2477,-1.2523,-1.2547,-1.2715,-1.2697,-1.2681,-1.2632,-1.275,-1.2807,-1.2831,-1.254,-1.2539,-1.2539,-1.2538,0,0,-1.1477,-1.1638,-1.167,-1.1733,-1.1861,-1.1956,-1.2082,-1.221,-1.2276,-1.2378,-1.2485,-1.2654,-1.2639,-1.2716,-1.2748,-1.283,-1.2961,-1.2803,-1.2807,-1.283,-1.3151,-1.3163,-1.3189,-1.2964,-1.2969,-1.2973,-1.3141,0,-1.1641,-1.1864,-1.1908,-1.2102,-1.2214,-1.2228,-1.2338,-1.2428,-1.2481,-1.2584,-1.2644,-1.2762,-1.2733,-1.2779,-1.286,-1.2928,-1.3026,-1.2916,-1.3066,-1.3071,-1.3038,-1.3219,-1.3234,-1.3388,-1.3164,-1.3168,-1.317,0,-1.1864,-1.1967,-1.2171,-1.2281,-1.233,-1.2428,-1.2547,-1.2645,-1.2747,-1.278,-1.2863,-1.2885,-1.3017,-1.2959,-1.3141,-1.3064,-1.3128,-1.3169,-1.3177,-1.3194,-1.3129,-1.3242,-1.3439,-1.3462,-1.3206,-1.3203,-1.3201,0,-1.1966,-1.2157,-1.2303,-1.2356,-1.2488,-1.2556,-1.2615,-1.2713,-1.2786,-1.289,-1.2938,-1.3057,-1.3122,-1.3214,-1.3267,-1.322,-1.3445,-1.3392,-1.3476,-1.3475,-1.3525,-1.3522,-1.3736,-1.3563,-1.3563,-1.3563,-1.3562,0,-1.2146,-1.2271,-1.235,-1.2441,-1.258,-1.2628,-1.2765,-1.2823,-1.2909,-1.301,-1.303,-1.3125,-1.3189,-1.3294,-1.3336,-1.3479,-1.3509,-1.354,-1.355,-1.3539,-1.3535,-1.3583,-1.3574,-1.3569,-1.3567,-1.3566,-1.3565,0,-1.2286,-1.2344,-1.2504,-1.2614,-1.2644,-1.2742,-1.2837,-1.2925,-1.2976,-1.3104,-1.3137,-1.3218,-1.3342,-1.3403,-1.3558,-1.3586,-1.3748,-1.3751,-1.3713,-1.3717,-1.3798,-1.379,-1.4052,-1.4089,-1.3891,-1.3892,-1.3894,0,-1.2398,-1.2493,-1.2612,-1.268,-1.2739,-1.2849,-1.2922,-1.2972,-1.3048,-1.3169,-1.3243,-1.3366,-1.3468,-1.3664,-1.3738,-1.3855,-1.3862,-1.3945,-1.388,-1.3865,-1.3864,-1.3858,-1.3868,-1.3958,-1.396,-1.3961,-1.3962,0,-1.2589,-1.2612,-1.2716,-1.283,-1.2916,-1.3008,-1.3099,-1.3154,-1.3219,-1.3303,-1.3427,-1.3506,-1.3661,-1.3784,-1.3905,-1.3966,-1.3976,-1.3981,-1.4007,-1.3998,-1.3973,-1.3988,-1.3746,-1.3976,-1.3975,-1.3974,-1.3973,-1.3973,-1.272,-1.2804,-1.2899,-1.3014,-1.3086,-1.317,-1.3257,-1.3317,-1.3421,-1.355,-1.3573,-1.3705,-1.3802,-1.3966,-1.4031,-1.4135,-1.4117,-1.4155,-1.4165,-1.4173,-1.4178,-1.3953,-1.4158,-1.4157,-1.4157,-1.4157,-1.4157,0,-1.2913,-1.2973,-1.3078,-1.3202,-1.3292,-1.3288,-1.3388,-1.3464,-1.3579,-1.3668,-1.3766,-1.3908,-1.4026,-1.4106,-1.4226,-1.4294,-1.4301,-1.4324,-1.432,-1.4334,-1.4187,-1.4153,-1.4316,-1.4316,-1.4316,-1.4316,-1.4316,-1.4316,-1.3024,-1.3166,-1.3199,-1.3377,-1.3437,-1.3565,-1.3622,-1.3699,-1.3769,-1.3926,-1.4023,-1.4074,-1.4159,-1.4284,-1.4392,-1.4412,-1.4456,-1.4479,-1.45,-1.4361,-1.4345,-1.4329,-1.4297,-1.4488,-1.4488,-1.4639,-1.464,-1.4641]},{"header":{"parameterUnit":"m.s-1","parameterCategory":1,"la1":30.2991,"la2":30.254,"lo1":-89.0895,"lo2":-89.0444,"dx":0.0017,"dy":0.0017,"nx":28,"ny":28,"refTime":"2022-12-30T15:00:00:Z","depth":0,"parameterNumber":3,"parameterNumberName":"V-component_of_WINDS"},"data":[0,0,0,0,0,0,0,0,0,0,0,0,0,0,0,0,0,0,0,0,0,0,0,0,0,0,0,0,0,0,0,0,0,0,0,0,0,0,0,0,0,0,0,0,0,0,0,0,0,0,0,0,0,0,0,0,0,0,0.9358,0.9366,0,1.0082,1.009,1.0099,1.0379,1.0377,1.0375,1.0373,1.1119,1.1141,1.1162,0,0,0,0,0,0,0,0,0,0,0,0,0,0.8221,0.824,0.9357,0.9367,0.9376,1.0081,1.0091,1.0101,1.038,1.0377,1.0375,1.0372,1.1112,1.1138,1.1164,0,0,0,0,0,0,0,0,0,0,0,0,0,0.8806,0.8247,0.9356,0.96,0.9629,1.0079,1.0091,1.0103,1.038,1.0377,1.0374,1.0371,1.1104,1.1135,1.1168,1.143,0,0,1.1267,1.1282,0,0,0,0,0,0,0,0,0.8773,0.8848,0.9555,0.9584,0.9617,1.0137,0.9964,1.0548,1.0381,1.0095,1.0373,1.037,1.0795,1.0853,1.0996,1.1465,1.1497,1.127,1.129,1.1304,1.1313,0,0,0,0,0,0,0,0.8732,0.8819,0.9645,0.9565,0.9603,0.9674,0.9754,1.0076,1.0454,1.012,1.0142,1.0223,1.0812,1.0964,1.1015,1.1508,1.1269,1.1298,1.1319,1.1331,1.2231,1.2235,0,0,0,0,0,0,0.865,0.8783,0.9622,0.9666,0.9179,0.9697,0.9787,0.9973,1.0451,1.0521,1.0225,1.0234,1.0909,1.0977,1.1043,1.1385,1.1304,1.1334,1.1353,1.2227,1.2232,1.2237,0,0,0,0,0,0,0.8625,0.8723,0.9592,0.9231,0.9347,0.972,0.9928,0.9989,1.0142,1.0531,1.06,1.0311,1.091,1.0997,1.1332,1.1415,1.1349,1.1379,1.2222,1.2228,1.2234,1.2068,0,0,0,0,0,0,0.8591,0.8712,0.8814,0.9231,0.9365,0.9868,0.9933,1.0006,1.0197,1.0215,1.0629,1.0695,1.0914,1.1282,1.1364,1.1458,1.1404,1.2216,1.2225,1.2232,1.2068,1.2068,1.2068,0,0,0,0,0,0.8549,0.8739,0.8818,0.8918,0.9501,0.9872,0.9949,1.0196,1.0202,1.031,1.0559,1.0682,1.139,1.1314,1.1409,1.1514,1.2212,1.2222,1.2232,1.2068,1.2068,1.2068,0,0,0,0,0,0,0.8325,0.8798,0.8891,0.9221,0.9504,0.9918,1.0062,1.0188,1.0476,1.0481,1.0776,1.0867,1.1179,1.138,1.1286,1.1794,1.181,1.1839,1.1653,1.1656,1.1656,1.1604,1.1431,0,0,0,0,0,0.8312,0.8573,0.8973,0.9225,0.9362,0.9686,0.9857,1.0022,1.0328,1.045,1.0725,1.1017,1.1307,1.1492,1.1779,1.2095,1.2192,1.2214,1.2214,1.2212,1.2236,1.2421,1.2437,1.2269,1.2269,1.2268,0,0,0.8293,0.8583,0.873,0.9188,0.9427,0.9692,0.9786,1.0062,1.0262,1.0493,1.0828,1.1037,1.1384,1.1711,1.1869,1.1888,1.2303,1.2225,1.222,1.2247,1.2433,1.2448,1.2462,1.2275,1.2274,1.2273,0,0,0.8393,0.8636,0.8876,0.9112,0.9471,0.9685,0.9741,1.0138,1.0287,1.0625,1.0804,1.1046,1.1537,1.1778,1.1964,1.2151,1.2276,1.2235,1.2239,1.2415,1.2429,1.2442,1.2513,1.2534,1.2257,1.2256,1.2256,0,0.8324,0.8729,0.8983,0.9251,0.9447,0.9664,0.991,1.0127,1.0562,1.0694,1.0707,1.1328,1.1577,1.1965,1.201,1.2152,1.2228,1.2193,1.2406,1.2422,1.2438,1.2509,1.2535,1.2249,1.225,1.2251,1.2252,0,0.8628,0.8905,0.9055,0.9469,0.9682,0.9936,1.023,1.0415,1.056,1.0772,1.1115,1.1419,1.1773,1.1876,1.2021,1.2285,1.2286,1.2348,1.2372,1.2443,1.2515,1.2544,1.224,1.2242,1.2244,1.2246,0,0,0.8614,0.9161,0.9213,0.9404,0.9814,1.0035,1.0298,1.0643,1.0798,1.1088,1.132,1.1728,1.1788,1.1999,1.2172,1.2325,1.2458,1.2371,1.2383,1.238,1.2773,1.2727,1.2755,1.254,1.2546,1.2551,1.2745,0,0.8773,0.9255,0.949,0.987,1.0132,1.0339,1.057,1.0847,1.105,1.1303,1.1529,1.1816,1.187,1.2,1.216,1.2407,1.2542,1.2396,1.2762,1.2772,1.2675,1.2792,1.2747,1.2915,1.2774,1.2779,1.2783,0,0.9026,0.9314,0.972,1.01,1.0219,1.0421,1.0757,1.0993,1.1311,1.1449,1.1682,1.1849,1.2136,1.2132,1.2533,1.2428,1.2591,1.2734,1.2746,1.2796,1.2786,1.285,1.2975,1.3001,1.2829,1.2825,1.2822,0,0.8981,0.947,0.9778,0.9934,1.0383,1.0521,1.0715,1.103,1.1222,1.1513,1.1641,1.1961,1.2138,1.2382,1.2632,1.2606,1.301,1.3026,1.3135,1.3129,1.3218,1.321,1.3375,1.331,1.3309,1.3309,1.3308,0,0.914,0.9381,0.9764,0.9954,1.023,1.0496,1.0763,1.0972,1.125,1.1485,1.1681,1.1897,1.221,1.2466,1.2662,1.2966,1.3042,1.3164,1.3215,1.3151,1.3136,1.3267,1.3264,1.3316,1.3314,1.3313,1.3312,0,0.9141,0.9406,0.9756,1.0151,1.0256,1.0442,1.0782,1.0974,1.1184,1.1479,1.1564,1.1896,1.2207,1.2477,1.2887,1.3019,1.3333,1.3391,1.3226,1.3254,1.335,1.3339,1.3612,1.3662,1.3553,1.3554,1.3554,0,0.9228,0.9419,0.9833,1.0004,1.0194,1.0466,1.0663,1.093,1.1126,1.1501,1.1648,1.1972,1.2247,1.2733,1.3012,1.3326,1.3398,1.3471,1.3447,1.3377,1.3406,1.3394,1.3417,1.3473,1.3473,1.3473,1.3472,0,0.9357,0.9478,0.9753,1.0073,1.0301,1.0567,1.0838,1.0966,1.1284,1.1494,1.1814,1.2026,1.2443,1.2764,1.3108,1.3309,1.3446,1.3476,1.352,1.346,1.3359,1.342,1.3232,1.3471,1.3471,1.3471,1.3471,1.3471,0.941,0.959,0.9909,1.0209,1.044,1.0688,1.0889,1.1123,1.1393,1.1754,1.1894,1.222,1.2532,1.3009,1.3208,1.3468,1.3491,1.3551,1.3569,1.3581,1.3573,1.3309,1.3531,1.3531,1.3531,1.3532,1.3532,0,0.9554,0.9769,1.0041,1.0414,1.0649,1.075,1.1055,1.1246,1.1531,1.1809,1.2074,1.244,1.275,1.305,1.3377,1.3527,1.3597,1.3604,1.36,1.3644,1.3531,1.3464,1.3541,1.3541,1.3541,1.3541,1.3541,1.3541,0.9658,0.9969,1.0126,1.0553,1.0767,1.1088,1.1253,1.1483,1.1707,1.2107,1.2366,1.2558,1.2846,1.3194,1.3483,1.3564,1.3677,1.3668,1.3765,1.3656,1.3652,1.3648,1.3587,1.3689,1.3689,1.3858,1.386,1.3861]}]]